,�O�C���x[��],����1,�O�C���x[��],����2,���ԉ��x[��],����3,���Ԏ��x[��],����4,�m��2(��󒲎�)���x[��],����5,����[��],����6
2004/5/1 0:00,18.5,0,42,0 ,22,0 ,56,0 ,20.7,0 ,18.6,0 
2004/5/1 0:15,18,0,45,0 ,21.9,0 ,57,0 ,20.7,0 ,18.7,0 
2004/5/1 0:30,18.2,0,45,0 ,21.9,0 ,57,0 ,20.7,0 ,18.8,0 
2004/5/1 0:45,17.8,0,47,0 ,21.9,0 ,57,0 ,20.7,0 ,18.8,0 
2004/5/1 1:00,17.6,0,48,0 ,21.9,0 ,58,0 ,20.7,0 ,18.9,0 
2004/5/1 1:15,17,0,47,0 ,21.8,0 ,58,0 ,20.7,0 ,18.9,0 
2004/5/1 1:30,17.3,0,46,0 ,21.9,0 ,57,0 ,20.7,0 ,19,0 
2004/5/1 1:45,17.5,0,48,0 ,21.9,0 ,57,0 ,20.7,0 ,19,0 
2004/5/1 2:00,17.3,0,48,0 ,21.9,0 ,56,0 ,20.8,0 ,19.1,0 
2004/5/1 2:15,17.1,0,49,0 ,21.9,0 ,56,0 ,20.8,0 ,19.1,0 
2004/5/1 2:30,17.2,0,49,0 ,21.9,0 ,55,0 ,20.8,0 ,19.2,0 
2004/5/1 2:45,17.1,0,50,0 ,21.9,0 ,55,0 ,20.8,0 ,19.2,0 
2004/5/1 3:00,17,0,50,0 ,21.9,0 ,55,0 ,20.8,0 ,19.3,0 
2004/5/1 3:15,16.4,0,51,0 ,21.9,0 ,54,0 ,20.8,0 ,19.3,0 
2004/5/1 3:30,15.6,0,52,0 ,21.9,0 ,53,0 ,20.9,0 ,19.3,0 
2004/5/1 3:45,16.2,0,49,0 ,21.9,0 ,53,0 ,20.9,0 ,19.4,0 
2004/5/1 4:00,16.3,0,53,0 ,21.9,0 ,52,0 ,20.9,0 ,19.4,0 
2004/5/1 4:15,16.3,0,51,0 ,21.9,0 ,52,0 ,20.9,0 ,19.4,0 
2004/5/1 4:30,16.3,0,51,0 ,21.9,0 ,52,0 ,20.9,0 ,19.5,0 
2004/5/1 4:45,15.9,0,52,0 ,21.9,0 ,51,0 ,20.9,0 ,19.5,0 
2004/5/1 5:00,15.9,0,54,0 ,22,0 ,51,0 ,20.9,0 ,19.6,0 
2004/5/1 5:15,16.3,0,48,0 ,21.9,0 ,50,0 ,20.9,0 ,19.6,0 
2004/5/1 5:30,16.8,0,47,0 ,21.9,0 ,50,0 ,20.9,0 ,19.6,0 
2004/5/1 5:45,17,0,47,0 ,21.9,0 ,50,0 ,20.9,0 ,19.6,0 
2004/5/1 6:00,17,0,50,0 ,22,0 ,50,0 ,20.9,0 ,19.7,0 
2004/5/1 6:15,17,0,51,0 ,21.9,0 ,50,0 ,21,0 ,19,0 
2004/5/1 6:30,17.5,0,51,0 ,22,0 ,50,0 ,21,0 ,19.1,0 
2004/5/1 6:45,19.1,0,46,0 ,22,0 ,50,0 ,21,0 ,19.2,0 
2004/5/1 7:00,20.1,0,44,0 ,22.3,0 ,50,0 ,21.2,0 ,18.3,0 
2004/5/1 7:15,20.6,0,42,0 ,22.3,0 ,51,0 ,21.5,0 ,17.7,0 
2004/5/1 7:30,20.5,0,42,0 ,22.2,0 ,52,0 ,21.7,0 ,17.9,0 
2004/5/1 7:45,21.5,0,39,0 ,22.2,0 ,50,0 ,21.7,0 ,18.2,0 
2004/5/1 8:00,21.9,0,38,0 ,22.1,0 ,46,0 ,21.7,0 ,18.3,0 
2004/5/1 8:15,21.1,0,39,0 ,21.9,0 ,45,0 ,21.7,0 ,18.5,0 
2004/5/1 8:30,20.5,0,41,0 ,21.8,0 ,44,0 ,21.7,0 ,18.6,0 
2004/5/1 8:45,20.8,0,41,0 ,21.8,0 ,44,0 ,21.7,0 ,18.7,0 
2004/5/1 9:00,20.9,0,41,0 ,21.7,0 ,43,0 ,21.7,0 ,18.8,0 
2004/5/1 9:15,21.3,0,40,0 ,21.7,0 ,44,0 ,21.8,0 ,17,0 
2004/5/1 9:30,21.3,0,39,0 ,21.9,0 ,45,0 ,21.8,0 ,16.8,0 
2004/5/1 9:45,20.8,0,40,0 ,22.2,0 ,46,0 ,21.7,0 ,17.3,0 
2004/5/1 10:00,19.9,0,43,0 ,22.3,0 ,47,0 ,21.8,0 ,17.6,0 
2004/5/1 10:15,19.6,0,45,0 ,22,0 ,48,0 ,21.7,0 ,17.9,0 
2004/5/1 10:30,19.3,0,47,0 ,22,0 ,49,0 ,21.7,0 ,17.7,0 
2004/5/1 10:45,19.1,0,48,0 ,22,0 ,50,0 ,21.7,0 ,18,0 
2004/5/1 11:00,19.8,0,45,0 ,22,0 ,50,0 ,21.6,0 ,18.2,0 
2004/5/1 11:15,18.9,0,47,0 ,22,0 ,50,0 ,21.6,0 ,18.4,0 
2004/5/1 11:30,19.8,0,45,0 ,22,0 ,50,0 ,21.6,0 ,18.5,0 
2004/5/1 11:45,19.7,0,44,0 ,22,0 ,50,0 ,21.6,0 ,18.6,0 
2004/5/1 12:00,20,0,43,0 ,22,0 ,50,0 ,21.6,0 ,18.2,0 
2004/5/1 12:15,20.4,0,42,0 ,22.1,0 ,50,0 ,21.6,0 ,18.4,0 
2004/5/1 12:30,20.3,0,42,0 ,22.1,0 ,51,0 ,21.6,0 ,18.6,0 
2004/5/1 12:45,20.1,0,42,0 ,22.1,0 ,51,0 ,21.6,0 ,18.7,0 
2004/5/1 13:00,20.8,0,40,0 ,22.1,0 ,52,0 ,21.6,0 ,18.9,0 
2004/5/1 13:15,21.2,0,39,0 ,22.1,0 ,51,0 ,21.6,0 ,18.3,0 
2004/5/1 13:30,21.4,0,37,0 ,22.3,0 ,51,0 ,21.5,0 ,18,0 
2004/5/1 13:45,21.6,0,35,0 ,22.2,0 ,52,0 ,21.6,0 ,18.3,0 
2004/5/1 14:00,20.6,0,42,0 ,22.2,0 ,51,0 ,21.6,0 ,18.5,0 
2004/5/1 14:15,19.3,0,49,0 ,22.2,0 ,51,0 ,21.6,0 ,18.7,0 
2004/5/1 14:30,18,0,51,0 ,22.3,0 ,51,0 ,21.6,0 ,17.8,0 
2004/5/1 14:45,17,0,54,0 ,22.2,0 ,50,0 ,21.6,0 ,18.2,0 
2004/5/1 15:00,16.2,0,56,0 ,22.1,0 ,49,0 ,21.5,0 ,18.4,0 
2004/5/1 15:15,15.1,0,58,0 ,22,0 ,48,0 ,21.5,0 ,18.6,0 
2004/5/1 15:30,14.3,0,61,0 ,21.9,0 ,48,0 ,21.5,0 ,18.7,0 
2004/5/1 15:45,13.4,0,63,0 ,21.8,0 ,48,0 ,21.4,0 ,18.8,0 
2004/5/1 16:00,13.1,0,64,0 ,21.8,0 ,48,0 ,21.4,0 ,18.9,0 
2004/5/1 16:15,12.8,0,65,0 ,21.8,0 ,48,0 ,21.3,0 ,18.9,0 
2004/5/1 16:30,12,0,67,0 ,21.7,0 ,47,0 ,21.2,0 ,19,0 
2004/5/1 16:45,12.2,0,65,0 ,21.7,0 ,47,0 ,21.2,0 ,19.1,0 
2004/5/1 17:00,11.7,0,67,0 ,21.7,0 ,47,0 ,21.1,0 ,19.1,0 
2004/5/1 17:15,11.1,0,69,0 ,21.7,0 ,46,0 ,21.1,0 ,19.2,0 
2004/5/1 17:30,10.9,0,69,0 ,21.6,0 ,46,0 ,21,0 ,19.2,0 
2004/5/1 17:45,11.1,0,68,0 ,21.6,0 ,46,0 ,21,0 ,19.3,0 
2004/5/1 18:00,10.7,0,69,0 ,21.6,0 ,45,0 ,20.9,0 ,19.3,0 
2004/5/1 18:15,10.7,0,68,0 ,21.6,0 ,45,0 ,20.8,0 ,19.3,0 
2004/5/1 18:30,10.3,0,71,0 ,21.6,0 ,46,0 ,20.9,0 ,18.5,0 
2004/5/1 18:45,9.9,0,73,0 ,21.7,0 ,48,0 ,21.2,0 ,17.8,0 
2004/5/1 19:00,10,0,71,0 ,22.3,0 ,53,0 ,21.1,0 ,18.1,0 
2004/5/1 19:15,9.8,0,71,0 ,22.7,0 ,54,0 ,21,0 ,18.3,0 
2004/5/1 19:30,9.6,0,72,0 ,22.5,0 ,55,0 ,20.9,0 ,18.4,0 
2004/5/1 19:45,9.6,0,70,0 ,22.7,0 ,54,0 ,20.8,0 ,18.5,0 
2004/5/1 20:00,9.7,0,71,0 ,22.8,0 ,53,0 ,20.7,0 ,18.7,0 
2004/5/1 20:15,9.6,0,68,0 ,22.9,0 ,52,0 ,20.7,0 ,18.8,0 
2004/5/1 20:30,9.3,0,69,0 ,22.9,0 ,52,0 ,20.6,0 ,18.9,0 
2004/5/1 20:45,9.3,0,66,0 ,22.9,0 ,51,0 ,20.5,0 ,18.9,0 
2004/5/1 21:00,9.3,0,61,0 ,22.9,0 ,51,0 ,20.5,0 ,19,0 
2004/5/1 21:15,9.1,0,61,0 ,22.4,0 ,49,0 ,20.9,0 ,17.3,0 
2004/5/1 21:30,9.4,0,58,0 ,22.5,0 ,49,0 ,21.1,0 ,16.8,0 
2004/5/1 21:45,9.3,0,59,0 ,22.9,0 ,49,0 ,21,0 ,17.4,0 
2004/5/1 22:00,9.1,0,58,0 ,23.1,0 ,54,0 ,21.1,0 ,17.8,0 
2004/5/1 22:15,9,0,59,0 ,23.1,0 ,54,0 ,21,0 ,18,0 
2004/5/1 22:30,8.8,0,59,0 ,23.1,0 ,53,0 ,20.9,0 ,18.2,0 
2004/5/1 22:45,8.6,0,59,0 ,23.1,0 ,53,0 ,20.9,0 ,18.4,0 
2004/5/1 23:00,8.6,0,61,0 ,23.2,0 ,52,0 ,20.9,0 ,18.5,0 
2004/5/1 23:15,8.1,0,61,0 ,23.2,0 ,52,0 ,21,0 ,18.6,0 
2004/5/1 23:30,8.1,0,62,0 ,23.1,0 ,52,0 ,21,0 ,18.7,0 
2004/5/1 23:45,7.9,0,62,0 ,23.2,0 ,51,0 ,21,0 ,18.8,0 
2004/5/2 0:00,8.6,0,61,0 ,22.7,0 ,53,0 ,21.2,0 ,18.1,0 
2004/5/2 0:15,8.4,0,61,0 ,22.5,0 ,53,0 ,21.4,0 ,18.4,0 
2004/5/2 0:30,8.6,0,61,0 ,22.4,0 ,53,0 ,21.4,0 ,18.6,0 
2004/5/2 0:45,8.1,0,62,0 ,22.3,0 ,50,0 ,21.3,0 ,18.7,0 
2004/5/2 1:00,8.3,0,63,0 ,22.3,0 ,48,0 ,21.3,0 ,18.8,0 
2004/5/2 1:15,8.2,0,64,0 ,22.1,0 ,48,0 ,21.3,0 ,18.9,0 
2004/5/2 1:30,8.1,0,64,0 ,22,0 ,48,0 ,21.2,0 ,19,0 
2004/5/2 1:45,8.1,0,66,0 ,22,0 ,47,0 ,21.1,0 ,19.1,0 
2004/5/2 2:00,7.9,0,67,0 ,22,0 ,47,0 ,21.1,0 ,19.1,0 
2004/5/2 2:15,7.7,0,70,0 ,22,0 ,46,0 ,21,0 ,19.2,0 
2004/5/2 2:30,7.6,0,70,0 ,21.9,0 ,46,0 ,20.9,0 ,19.2,0 
2004/5/2 2:45,7.5,0,71,0 ,21.9,0 ,45,0 ,20.9,0 ,19.3,0 
2004/5/2 3:00,7.6,0,71,0 ,21.8,0 ,45,0 ,20.8,0 ,19.3,0 
2004/5/2 3:15,7.6,0,71,0 ,21.8,0 ,45,0 ,20.7,0 ,19.3,0 
2004/5/2 3:30,7.5,0,71,0 ,21.7,0 ,44,0 ,20.7,0 ,19.4,0 
2004/5/2 3:45,7.3,0,72,0 ,21.7,0 ,44,0 ,20.6,0 ,19.4,0 
2004/5/2 4:00,7.4,0,72,0 ,21.6,0 ,44,0 ,20.6,0 ,19.4,0 
2004/5/2 4:15,7.5,0,72,0 ,21.7,0 ,44,0 ,20.5,0 ,19.4,0 
2004/5/2 4:30,7.5,0,73,0 ,21.6,0 ,43,0 ,20.5,0 ,19.4,0 
2004/5/2 4:45,7.7,0,74,0 ,21.6,0 ,43,0 ,20.4,0 ,19.5,0 
2004/5/2 5:00,7.8,0,75,0 ,21.5,0 ,43,0 ,20.4,0 ,19.5,0 
2004/5/2 5:15,7.7,0,78,0 ,21.5,0 ,43,0 ,20.3,0 ,19.5,0 
2004/5/2 5:30,8,0,77,0 ,21.6,0 ,43,0 ,20.3,0 ,18.7,0 
2004/5/2 5:45,8.1,0,75,0 ,21.6,0 ,43,0 ,20.2,0 ,18.8,0 
2004/5/2 6:00,7,0,76,0 ,21.5,0 ,44,0 ,20.2,0 ,18.9,0 
2004/5/2 6:15,6.7,0,82,0 ,21.7,0 ,45,0 ,20.1,0 ,18.9,0 
2004/5/2 6:30,7.4,0,82,0 ,21.8,0 ,47,0 ,20.1,0 ,19,0 
2004/5/2 6:45,7.9,0,76,0 ,22.2,0 ,46,0 ,20.1,0 ,19,0 
2004/5/2 7:00,7.9,0,74,0 ,22.2,0 ,47,0 ,20.1,0 ,19,0 
2004/5/2 7:15,7.6,0,73,0 ,21.9,0 ,47,0 ,20.5,0 ,18.3,0 
2004/5/2 7:30,8,0,71,0 ,21.8,0 ,47,0 ,20.9,0 ,18.4,0 
2004/5/2 7:45,8.4,0,67,0 ,22,0 ,47,0 ,21,0 ,18.5,0 
2004/5/2 8:00,9,0,64,0 ,22.4,0 ,47,0 ,20.8,0 ,18.6,0 
2004/5/2 8:15,9.1,0,59,0 ,22.5,0 ,47,0 ,20.6,0 ,17.8,0 
2004/5/2 8:30,10.1,0,52,0 ,22.6,0 ,47,0 ,20.6,0 ,18.1,0 
2004/5/2 8:45,10.7,0,51,0 ,22.9,0 ,47,0 ,20.7,0 ,18.2,0 
2004/5/2 9:00,10.6,0,50,0 ,23,0 ,50,0 ,20.6,0 ,18.4,0 
2004/5/2 9:15,10.9,0,48,0 ,23.4,0 ,54,0 ,20.5,0 ,18.5,0 
2004/5/2 9:30,11.1,0,47,0 ,23.4,0 ,57,0 ,20.5,0 ,18.6,0 
2004/5/2 9:45,12.4,0,43,0 ,22.7,0 ,59,0 ,20.4,0 ,17.9,0 
2004/5/2 10:00,12.7,0,43,0 ,21.9,0 ,46,0 ,20.7,0 ,17.4,0 
2004/5/2 10:15,12.8,0,43,0 ,22,0 ,49,0 ,20.8,0 ,17.7,0 
2004/5/2 10:30,13.7,0,41,0 ,21.9,0 ,49,0 ,20.8,0 ,17.9,0 
2004/5/2 10:45,13.2,0,33,0 ,21.9,0 ,49,0 ,20.9,0 ,18.1,0 
2004/5/2 11:00,13.8,0,26,0 ,21.9,0 ,48,0 ,20.9,0 ,18.2,0 
2004/5/2 11:15,13.6,0,26,0 ,21.8,0 ,46,0 ,20.9,0 ,18.3,0 
2004/5/2 11:30,13.6,0,25,0 ,21.9,0 ,46,0 ,20.8,0 ,18.4,0 
2004/5/2 11:45,14,0,25,0 ,21.8,0 ,45,0 ,20.8,0 ,18.4,0 
2004/5/2 12:00,13.9,0,24,0 ,21.8,0 ,45,0 ,20.8,0 ,18.5,0 
2004/5/2 12:15,14.3,0,25,0 ,21.8,0 ,45,0 ,20.7,0 ,18.6,0 
2004/5/2 12:30,14.5,0,24,0 ,21.7,0 ,44,0 ,20.7,0 ,18.6,0 
2004/5/2 12:45,14.9,0,24,0 ,21.7,0 ,44,0 ,20.7,0 ,18.7,0 
2004/5/2 13:00,15.1,0,24,0 ,21.6,0 ,43,0 ,20.6,0 ,18.7,0 
2004/5/2 13:15,15.4,0,24,0 ,21.6,0 ,43,0 ,20.6,0 ,18.8,0 
2004/5/2 13:30,15.6,0,24,0 ,21.6,0 ,43,0 ,20.6,0 ,18.8,0 
2004/5/2 13:45,15.9,0,24,0 ,21.6,0 ,43,0 ,20.5,0 ,18.8,0 
2004/5/2 14:00,15.9,0,24,0 ,21.6,0 ,42,0 ,20.5,0 ,18.9,0 
2004/5/2 14:15,15.4,0,30,0 ,21.5,0 ,43,0 ,20.5,0 ,18.9,0 
2004/5/2 14:30,15.3,0,31,0 ,21.5,0 ,43,0 ,20.5,0 ,18.9,0 
2004/5/2 14:45,15.5,0,33,0 ,21.5,0 ,42,0 ,20.4,0 ,19,0 
2004/5/2 15:00,15.2,0,35,0 ,21.5,0 ,42,0 ,20.4,0 ,19,0 
2004/5/2 15:15,15.1,0,36,0 ,21.5,0 ,42,0 ,20.4,0 ,19.1,0 
2004/5/2 15:30,15,0,36,0 ,21.4,0 ,41,0 ,20.4,0 ,19.1,0 
2004/5/2 15:45,15.1,0,37,0 ,21.4,0 ,42,0 ,20.3,0 ,19.1,0 
2004/5/2 16:00,15,0,38,0 ,21.5,0 ,42,0 ,20.3,0 ,19.1,0 
2004/5/2 16:15,14.8,0,40,0 ,21.3,0 ,41,0 ,20.3,0 ,19.2,0 
2004/5/2 16:30,14.7,0,41,0 ,21.3,0 ,41,0 ,20.3,0 ,19.2,0 
2004/5/2 16:45,14,0,44,0 ,21.3,0 ,41,0 ,20.3,0 ,19.2,0 
2004/5/2 17:00,13.4,0,48,0 ,21.3,0 ,41,0 ,20.2,0 ,19.3,0 
2004/5/2 17:15,13.2,0,49,0 ,21.3,0 ,41,0 ,20.3,0 ,19.3,0 
2004/5/2 17:30,12.7,0,52,0 ,21.2,0 ,41,0 ,20.4,0 ,19.3,0 
2004/5/2 17:45,12.3,0,54,0 ,21.2,0 ,41,0 ,20.5,0 ,19.3,0 
2004/5/2 18:00,11.5,0,57,0 ,21.3,0 ,41,0 ,20.5,0 ,19.4,0 
2004/5/2 18:15,11.2,0,60,0 ,21.3,0 ,40,0 ,20.4,0 ,19.4,0 
2004/5/2 18:30,10.8,0,62,0 ,21.1,0 ,40,0 ,20.3,0 ,19.4,0 
2004/5/2 18:45,10.1,0,65,0 ,21.1,0 ,40,0 ,20.3,0 ,19.4,0 
2004/5/2 19:00,10.1,0,65,0 ,21.1,0 ,40,0 ,20.2,0 ,18.5,0 
2004/5/2 19:15,9.7,0,67,0 ,21.1,0 ,45,0 ,20.2,0 ,18.6,0 
2004/5/2 19:30,9.5,0,68,0 ,21.2,0 ,47,0 ,20.3,0 ,17.8,0 
2004/5/2 19:45,9.4,0,69,0 ,21.2,0 ,48,0 ,20.3,0 ,18,0 
2004/5/2 20:00,8.8,0,73,0 ,21.3,0 ,48,0 ,20.2,0 ,18.2,0 
2004/5/2 20:15,8.4,0,75,0 ,21.4,0 ,48,0 ,20.1,0 ,18.3,0 
2004/5/2 20:30,8.2,0,77,0 ,21.4,0 ,49,0 ,20.1,0 ,18.4,0 
2004/5/2 20:45,8.3,0,77,0 ,21.9,0 ,49,0 ,20,0 ,18.4,0 
2004/5/2 21:00,8.2,0,78,0 ,21.8,0 ,50,0 ,20,0 ,18.5,0 
2004/5/2 21:15,8.7,0,75,0 ,21.5,0 ,49,0 ,20.4,0 ,17.9,0 
2004/5/2 21:30,8.6,0,75,0 ,21.6,0 ,49,0 ,20.2,0 ,18,0 
2004/5/2 21:45,8.5,0,76,0 ,21.4,0 ,48,0 ,20.3,0 ,18.2,0 
2004/5/2 22:00,8.6,0,75,0 ,21.4,0 ,48,0 ,20.3,0 ,17.7,0 
2004/5/2 22:15,8.6,0,75,0 ,21.4,0 ,49,0 ,20.2,0 ,17.8,0 
2004/5/2 22:30,8.7,0,74,0 ,21.3,0 ,50,0 ,20.2,0 ,18.1,0 
2004/5/2 22:45,8.7,0,74,0 ,21.3,0 ,49,0 ,20.1,0 ,18.3,0 
2004/5/2 23:00,8.8,0,73,0 ,21.3,0 ,49,0 ,20.1,0 ,18.4,0 
2004/5/2 23:15,8.8,0,74,0 ,21.3,0 ,48,0 ,20.2,0 ,18.5,0 
2004/5/2 23:30,8.9,0,72,0 ,21.3,0 ,52,0 ,20.1,0 ,18.6,0 
2004/5/2 23:45,8.8,0,72,0 ,21.3,0 ,54,0 ,20.1,0 ,18.7,0 
2004/5/3 0:00,8.6,0,73,0 ,21.2,0 ,55,0 ,20,0 ,18.8,0 
2004/5/3 0:15,8.7,0,72,0 ,21.3,0 ,56,0 ,20,0 ,18.9,0 
2004/5/3 0:30,8.8,0,72,0 ,21.2,0 ,57,0 ,20,0 ,18.9,0 
2004/5/3 0:45,8.9,0,72,0 ,21.1,0 ,58,0 ,20,0 ,19,0 
2004/5/3 1:00,8.7,0,73,0 ,21.2,0 ,58,0 ,20,0 ,19,0 
2004/5/3 1:15,8.9,0,72,0 ,21.1,0 ,58,0 ,20.1,0 ,19.1,0 
2004/5/3 1:30,8.9,0,73,0 ,21.1,0 ,58,0 ,20.1,0 ,19.1,0 
2004/5/3 1:45,8.7,0,74,0 ,21.1,0 ,59,0 ,20.1,0 ,19.1,0 
2004/5/3 2:00,8.7,0,75,0 ,21.1,0 ,58,0 ,20.1,0 ,19.2,0 
2004/5/3 2:15,8.7,0,76,0 ,21,0 ,58,0 ,20.1,0 ,19.2,0 
2004/5/3 2:30,8.8,0,76,0 ,21,0 ,58,0 ,20.1,0 ,19.2,0 
2004/5/3 2:45,8.9,0,76,0 ,20.9,0 ,58,0 ,20.1,0 ,19.3,0 
2004/5/3 3:00,9.4,0,74,0 ,21,0 ,58,0 ,20.1,0 ,19.3,0 
2004/5/3 3:15,9.4,0,73,0 ,20.9,0 ,57,0 ,20.1,0 ,19.3,0 
2004/5/3 3:30,9.6,0,72,0 ,20.9,0 ,57,0 ,20.1,0 ,19.3,0 
2004/5/3 3:45,9.6,0,72,0 ,20.8,0 ,56,0 ,20.1,0 ,19.4,0 
2004/5/3 4:00,9.6,0,72,0 ,20.8,0 ,56,0 ,20.1,0 ,19.4,0 
2004/5/3 4:15,9.8,0,72,0 ,20.9,0 ,56,0 ,20.1,0 ,19.4,0 
2004/5/3 4:30,9.6,0,74,0 ,20.9,0 ,55,0 ,20.1,0 ,19.4,0 
2004/5/3 4:45,9.5,0,74,0 ,20.8,0 ,55,0 ,20.1,0 ,19.5,0 
2004/5/3 5:00,9.4,0,75,0 ,20.9,0 ,54,0 ,20.1,0 ,19.5,0 
2004/5/3 5:15,9.5,0,74,0 ,20.8,0 ,54,0 ,20.1,0 ,19.5,0 
2004/5/3 5:30,9.6,0,74,0 ,20.8,0 ,53,0 ,20.1,0 ,19.5,0 
2004/5/3 5:45,9.7,0,73,0 ,20.8,0 ,53,0 ,20.1,0 ,18.9,0 
2004/5/3 6:00,9.8,0,73,0 ,20.8,0 ,53,0 ,20.1,0 ,18.9,0 
2004/5/3 6:15,9.9,0,72,0 ,20.7,0 ,53,0 ,20.1,0 ,19,0 
2004/5/3 6:30,10.1,0,72,0 ,20.8,0 ,53,0 ,20.2,0 ,19,0 
2004/5/3 6:45,10.5,0,71,0 ,20.8,0 ,53,0 ,20.1,0 ,19,0 
2004/5/3 7:00,10.9,0,69,0 ,20.9,0 ,53,0 ,20.1,0 ,19.1,0 
2004/5/3 7:15,11.5,0,67,0 ,20.9,0 ,53,0 ,20.1,0 ,18.2,0 
2004/5/3 7:30,11.3,0,67,0 ,20.9,0 ,53,0 ,20.3,0 ,17.7,0 
2004/5/3 7:45,12.2,0,66,0 ,20.9,0 ,53,0 ,20.5,0 ,18,0 
2004/5/3 8:00,12.5,0,66,0 ,21.2,0 ,56,0 ,20.4,0 ,18.1,0 
2004/5/3 8:15,13.7,0,65,0 ,21.5,0 ,62,0 ,20.3,0 ,18.2,0 
2004/5/3 8:30,14.7,0,63,0 ,21.8,0 ,56,0 ,20.8,0 ,18.3,0 
2004/5/3 8:45,15.5,0,63,0 ,22.4,0 ,57,0 ,20.8,0 ,18.5,0 
2004/5/3 9:00,15.9,0,62,0 ,22.5,0 ,58,0 ,20.6,0 ,18.6,0 
2004/5/3 9:15,16.3,0,63,0 ,22.5,0 ,60,0 ,20.5,0 ,18.7,0 
2004/5/3 9:30,17,0,62,0 ,22.7,0 ,60,0 ,20.5,0 ,18.8,0 
2004/5/3 9:45,17.5,0,62,0 ,22.4,0 ,57,0 ,20.9,0 ,17.7,0 
2004/5/3 10:00,17.7,0,62,0 ,22.7,0 ,61,0 ,20.8,0 ,18,0 
2004/5/3 10:15,18.3,0,61,0 ,21.9,0 ,59,0 ,21.2,0 ,17.9,0 
2004/5/3 10:30,18.3,0,62,0 ,22.4,0 ,58,0 ,21.5,0 ,18.2,0 
2004/5/3 10:45,19.1,0,60,0 ,22.3,0 ,59,0 ,21.2,0 ,18.4,0 
2004/5/3 11:00,19,0,60,0 ,22.8,0 ,59,0 ,21.1,0 ,18.5,0 
2004/5/3 11:15,18.7,0,62,0 ,23,0 ,64,0 ,21,0 ,18.6,0 
2004/5/3 11:30,18.5,0,63,0 ,23,0 ,67,0 ,20.9,0 ,18.7,0 
2004/5/3 11:45,18.4,0,63,0 ,23,0 ,69,0 ,20.8,0 ,18.8,0 
2004/5/3 12:00,18.4,0,63,0 ,23.1,0 ,70,0 ,20.7,0 ,18.9,0 
2004/5/3 12:15,18.5,0,63,0 ,22.1,0 ,65,0 ,21,0 ,18.2,0 
2004/5/3 12:30,18.5,0,63,0 ,22,0 ,62,0 ,21.2,0 ,18.5,0 
2004/5/3 12:45,18.6,0,63,0 ,21.8,0 ,61,0 ,21.3,0 ,18.6,0 
2004/5/3 13:00,18.4,0,64,0 ,21.9,0 ,60,0 ,21.3,0 ,18.8,0 
2004/5/3 13:15,18.8,0,62,0 ,21.9,0 ,60,0 ,21.3,0 ,18.9,0 
2004/5/3 13:30,18.2,0,65,0 ,21.8,0 ,59,0 ,21.3,0 ,19,0 
2004/5/3 13:45,18.4,0,65,0 ,21.7,0 ,59,0 ,21.3,0 ,19.1,0 
2004/5/3 14:00,18.7,0,64,0 ,21.7,0 ,58,0 ,21.3,0 ,19.1,0 
2004/5/3 14:15,17.9,0,67,0 ,21.7,0 ,58,0 ,21.3,0 ,19.2,0 
2004/5/3 14:30,17.9,0,67,0 ,21.8,0 ,58,0 ,21.3,0 ,19.3,0 
2004/5/3 14:45,18.1,0,65,0 ,21.7,0 ,57,0 ,21.2,0 ,19.4,0 
2004/5/3 15:00,17.8,0,67,0 ,21.7,0 ,57,0 ,21.2,0 ,19.4,0 
2004/5/3 15:15,18.2,0,67,0 ,21.6,0 ,57,0 ,21.2,0 ,19.5,0 
2004/5/3 15:30,17.9,0,68,0 ,21.6,0 ,56,0 ,21.2,0 ,19.5,0 
2004/5/3 15:45,17.5,0,69,0 ,21.7,0 ,56,0 ,21.1,0 ,19.5,0 
2004/5/3 16:00,17.5,0,70,0 ,21.7,0 ,56,0 ,21.1,0 ,19.6,0 
2004/5/3 16:15,17.3,0,72,0 ,21.8,0 ,57,0 ,21.1,0 ,18.9,0 
2004/5/3 16:30,17.1,0,72,0 ,21.8,0 ,57,0 ,21.1,0 ,19.1,0 
2004/5/3 16:45,16.6,0,75,0 ,21.8,0 ,58,0 ,21.1,0 ,18.8,0 
2004/5/3 17:00,16.4,0,77,0 ,22,0 ,58,0 ,21,0 ,19,0 
2004/5/3 17:15,16.3,0,78,0 ,22.3,0 ,57,0 ,20.9,0 ,19.1,0 
2004/5/3 17:30,16.1,0,80,0 ,22.4,0 ,58,0 ,20.8,0 ,19.2,0 
2004/5/3 17:45,15.9,0,81,0 ,22.3,0 ,58,0 ,20.8,0 ,19.3,0 
2004/5/3 18:00,16,0,82,0 ,22.4,0 ,58,0 ,20.8,0 ,19.3,0 
2004/5/3 18:15,15.9,0,83,0 ,22.4,0 ,58,0 ,20.7,0 ,19.4,0 
2004/5/3 18:30,15.8,0,83,0 ,22.5,0 ,58,0 ,20.7,0 ,19.5,0 
2004/5/3 18:45,15.7,0,84,0 ,22.6,0 ,58,0 ,20.6,0 ,19.5,0 
2004/5/3 19:00,15.5,0,85,0 ,22.4,0 ,59,0 ,20.6,0 ,19.6,0 
2004/5/3 19:15,15.7,0,84,0 ,22.3,0 ,59,0 ,20.6,0 ,18.3,0 
2004/5/3 19:30,15.6,0,86,0 ,22.6,0 ,59,0 ,20.6,0 ,18.5,0 
2004/5/3 19:45,15.8,0,87,0 ,22.5,0 ,60,0 ,20.5,0 ,18.7,0 
2004/5/3 20:00,15.5,0,88,0 ,22.7,0 ,60,0 ,20.5,0 ,18.8,0 
2004/5/3 20:15,15.4,0,90,0 ,22.7,0 ,60,0 ,20.4,0 ,18.9,0 
2004/5/3 20:30,15.8,0,88,0 ,22.6,0 ,61,0 ,20.4,0 ,19,0 
2004/5/3 20:45,15.5,0,89,0 ,22.8,0 ,61,0 ,20.4,0 ,19.1,0 
2004/5/3 21:00,15.8,0,88,0 ,22.7,0 ,63,0 ,20.3,0 ,19.2,0 
2004/5/3 21:15,15.6,0,89,0 ,22.9,0 ,62,0 ,20.3,0 ,19.2,0 
2004/5/3 21:30,15.8,0,90,0 ,22.8,0 ,62,0 ,20.3,0 ,19.3,0 
2004/5/3 21:45,15.8,0,90,0 ,22.9,0 ,62,0 ,20.2,0 ,19.4,0 
2004/5/3 22:00,15.6,0,89,0 ,22.9,0 ,62,0 ,20.2,0 ,19.1,0 
2004/5/3 22:15,15.6,0,87,0 ,23,0 ,63,0 ,20.2,0 ,18.7,0 
2004/5/3 22:30,15.4,0,90,0 ,23,0 ,63,0 ,20.2,0 ,18.9,0 
2004/5/3 22:45,15.7,0,88,0 ,23.1,0 ,63,0 ,20.2,0 ,19,0 
2004/5/3 23:00,15.7,0,90,0 ,23,0 ,63,0 ,20.2,0 ,19.1,0 
2004/5/3 23:15,15.8,0,89,0 ,23.1,0 ,63,0 ,20.2,0 ,19.2,0 
2004/5/3 23:30,15.8,0,91,0 ,23.1,0 ,63,0 ,20.2,0 ,19.3,0 
2004/5/3 23:45,15.9,0,88,0 ,23.2,0 ,63,0 ,20.2,0 ,19.4,0 
2004/5/4 0:00,16,0,90,0 ,23,0 ,63,0 ,20.2,0 ,18.8,0 
2004/5/4 0:15,16,0,89,0 ,23.2,0 ,62,0 ,20.3,0 ,18.6,0 
2004/5/4 0:30,16.1,0,91,0 ,23,0 ,63,0 ,20.5,0 ,18.8,0 
2004/5/4 0:45,15.9,0,90,0 ,22.9,0 ,62,0 ,20.9,0 ,19,0 
2004/5/4 1:00,16,0,92,0 ,23,0 ,62,0 ,21.3,0 ,18.8,0 
2004/5/4 1:15,16.5,0,89,0 ,22.8,0 ,62,0 ,21.5,0 ,19.1,0 
2004/5/4 1:30,16.7,0,88,0 ,22.7,0 ,62,0 ,21.5,0 ,19.3,0 
2004/5/4 1:45,16.7,0,87,0 ,22.6,0 ,61,0 ,21.5,0 ,19.4,0 
2004/5/4 2:00,16.6,0,87,0 ,22.5,0 ,61,0 ,21.6,0 ,19.6,0 
2004/5/4 2:15,16.8,0,87,0 ,22.5,0 ,60,0 ,21.6,0 ,19.6,0 
2004/5/4 2:30,16.8,0,85,0 ,22.5,0 ,60,0 ,21.6,0 ,19.7,0 
2004/5/4 2:45,16.8,0,85,0 ,22.4,0 ,60,0 ,21.6,0 ,19.8,0 
2004/5/4 3:00,16.8,0,84,0 ,22.4,0 ,60,0 ,21.5,0 ,19.9,0 
2004/5/4 3:15,16.8,0,84,0 ,22.4,0 ,59,0 ,21.4,0 ,19.9,0 
2004/5/4 3:30,16.8,0,83,0 ,22.3,0 ,59,0 ,21.4,0 ,20,0 
2004/5/4 3:45,16.8,0,82,0 ,22.3,0 ,59,0 ,21.4,0 ,20.1,0 
2004/5/4 4:00,16.9,0,80,0 ,22.3,0 ,59,0 ,21.4,0 ,20.1,0 
2004/5/4 4:15,16.8,0,80,0 ,22.3,0 ,59,0 ,21.4,0 ,20.2,0 
2004/5/4 4:30,16.6,0,82,0 ,22.3,0 ,58,0 ,21.4,0 ,20.2,0 
2004/5/4 4:45,16.4,0,84,0 ,22.3,0 ,58,0 ,21.4,0 ,20.3,0 
2004/5/4 5:00,16.4,0,85,0 ,22.2,0 ,58,0 ,21.5,0 ,20.3,0 
2004/5/4 5:15,16.2,0,86,0 ,22.2,0 ,58,0 ,21.5,0 ,20.3,0 
2004/5/4 5:30,16.3,0,85,0 ,22.2,0 ,57,0 ,21.5,0 ,20.4,0 
2004/5/4 5:45,16.3,0,84,0 ,22.2,0 ,58,0 ,21.6,0 ,20.4,0 
2004/5/4 6:00,16.3,0,83,0 ,22.2,0 ,58,0 ,21.9,0 ,20.5,0 
2004/5/4 6:15,16.4,0,83,0 ,22.1,0 ,62,0 ,21.8,0 ,19.6,0 
2004/5/4 6:30,16.6,0,84,0 ,22.1,0 ,63,0 ,21.7,0 ,19.3,0 
2004/5/4 6:45,16.7,0,83,0 ,22.1,0 ,64,0 ,21.6,0 ,19.5,0 
2004/5/4 7:00,16.8,0,82,0 ,22.1,0 ,65,0 ,21.6,0 ,19.6,0 
2004/5/4 7:15,15.7,0,86,0 ,22.3,0 ,66,0 ,21.5,0 ,19.3,0 
2004/5/4 7:30,16,0,87,0 ,22.3,0 ,69,0 ,21.7,0 ,19.5,0 
2004/5/4 7:45,16.3,0,84,0 ,22.3,0 ,68,0 ,22.3,0 ,19.6,0 
2004/5/4 8:00,16.2,0,84,0 ,22.5,0 ,69,0 ,22.4,0 ,18.4,0 
2004/5/4 8:15,16.5,0,83,0 ,22.4,0 ,69,0 ,22.4,0 ,18.7,0 
2004/5/4 8:30,16.5,0,83,0 ,22.8,0 ,72,0 ,22.3,0 ,18.5,0 
2004/5/4 8:45,16.9,0,81,0 ,23,0 ,73,0 ,22.2,0 ,18.9,0 
2004/5/4 9:00,17.4,0,77,0 ,23.2,0 ,77,0 ,22.1,0 ,19,0 
2004/5/4 9:15,17.4,0,78,0 ,23.4,0 ,78,0 ,22,0 ,19.2,0 
2004/5/4 9:30,18.5,0,73,0 ,23,0 ,79,0 ,21.9,0 ,19.3,0 
2004/5/4 9:45,18.8,0,72,0 ,22.9,0 ,79,0 ,21.9,0 ,19.4,0 
2004/5/4 10:00,18.7,0,72,0 ,22.7,0 ,78,0 ,21.9,0 ,18.4,0 
2004/5/4 10:15,18.9,0,72,0 ,22.8,0 ,78,0 ,21.9,0 ,18.8,0 
2004/5/4 10:30,19.4,0,72,0 ,22.8,0 ,79,0 ,21.9,0 ,19,0 
2004/5/4 10:45,19.6,0,71,0 ,22.5,0 ,72,0 ,22.2,0 ,18.7,0 
2004/5/4 11:00,19.9,0,70,0 ,22.6,0 ,74,0 ,22.3,0 ,19,0 
2004/5/4 11:15,19.9,0,70,0 ,22.6,0 ,74,0 ,22.5,0 ,19.2,0 
2004/5/4 11:30,19.9,0,70,0 ,22.5,0 ,73,0 ,22.5,0 ,19,0 
2004/5/4 11:45,20.2,0,69,0 ,22.6,0 ,72,0 ,22.5,0 ,18.7,0 
2004/5/4 12:00,20.5,0,68,0 ,22.5,0 ,72,0 ,22.5,0 ,19,0 
2004/5/4 12:15,21.3,0,65,0 ,22.5,0 ,72,0 ,22.5,0 ,19.2,0 
2004/5/4 12:30,21.8,0,64,0 ,22.5,0 ,71,0 ,22.5,0 ,19.4,0 
2004/5/4 12:45,22.1,0,63,0 ,22.5,0 ,71,0 ,22.5,0 ,19.5,0 
2004/5/4 13:00,22.4,0,61,0 ,22.5,0 ,71,0 ,22.4,0 ,19.6,0 
2004/5/4 13:15,22.7,0,61,0 ,22.4,0 ,70,0 ,22.4,0 ,19.8,0 
2004/5/4 13:30,22.9,0,59,0 ,22.4,0 ,70,0 ,22.3,0 ,19.8,0 
2004/5/4 13:45,23,0,59,0 ,22.4,0 ,70,0 ,22.3,0 ,19.9,0 
2004/5/4 14:00,23,0,59,0 ,22.4,0 ,69,0 ,22.3,0 ,20,0 
2004/5/4 14:15,22.9,0,59,0 ,22.4,0 ,69,0 ,22.3,0 ,20.1,0 
2004/5/4 14:30,22.9,0,60,0 ,22.4,0 ,69,0 ,22.2,0 ,20.2,0 
2004/5/4 14:45,22.7,0,63,0 ,22.4,0 ,69,0 ,22.2,0 ,20.2,0 
2004/5/4 15:00,22.5,0,66,0 ,22.4,0 ,68,0 ,22.2,0 ,20.3,0 
2004/5/4 15:15,22.3,0,68,0 ,22.4,0 ,69,0 ,22.1,0 ,20.4,0 
2004/5/4 15:30,22,0,67,0 ,22.3,0 ,69,0 ,22.1,0 ,20.4,0 
2004/5/4 15:45,21.9,0,67,0 ,22.3,0 ,69,0 ,22.1,0 ,20.5,0 
2004/5/4 16:00,21.2,0,65,0 ,22.3,0 ,68,0 ,22,0 ,20.5,0 
2004/5/4 16:15,20.4,0,63,0 ,22.3,0 ,69,0 ,22,0 ,20.6,0 
2004/5/4 16:30,19.8,0,61,0 ,22.3,0 ,68,0 ,22,0 ,20.7,0 
2004/5/4 16:45,19.8,0,60,0 ,22.3,0 ,67,0 ,21.9,0 ,20.7,0 
2004/5/4 17:00,19.7,0,58,0 ,22.2,0 ,66,0 ,21.9,0 ,20.7,0 
2004/5/4 17:15,19.3,0,59,0 ,22.2,0 ,66,0 ,21.8,0 ,20.8,0 
2004/5/4 17:30,19.3,0,59,0 ,22.2,0 ,65,0 ,21.8,0 ,20.8,0 
2004/5/4 17:45,19.4,0,59,0 ,22.2,0 ,64,0 ,21.7,0 ,20.8,0 
2004/5/4 18:00,19.1,0,57,0 ,22.2,0 ,64,0 ,21.7,0 ,20.8,0 
2004/5/4 18:15,19,0,57,0 ,22.2,0 ,64,0 ,21.6,0 ,19.9,0 
2004/5/4 18:30,18.9,0,57,0 ,22.3,0 ,64,0 ,21.6,0 ,20,0 
2004/5/4 18:45,17.6,0,62,0 ,22.3,0 ,66,0 ,21.5,0 ,20.1,0 
2004/5/4 19:00,17.2,0,63,0 ,22.3,0 ,65,0 ,21.4,0 ,20.2,0 
2004/5/4 19:15,17,0,65,0 ,22.4,0 ,64,0 ,21.3,0 ,19.4,0 
2004/5/4 19:30,17,0,63,0 ,22.5,0 ,64,0 ,21.3,0 ,19.5,0 
2004/5/4 19:45,16.9,0,62,0 ,22.6,0 ,64,0 ,21.2,0 ,19.6,0 
2004/5/4 20:00,17.2,0,59,0 ,22.7,0 ,65,0 ,21.2,0 ,19.7,0 
2004/5/4 20:15,16.5,0,62,0 ,22.9,0 ,66,0 ,21.1,0 ,19.7,0 
2004/5/4 20:30,16.6,0,60,0 ,23,0 ,67,0 ,21.1,0 ,19.8,0 
2004/5/4 20:45,16.2,0,64,0 ,23,0 ,68,0 ,21,0 ,19.9,0 
2004/5/4 21:00,16.1,0,64,0 ,23.1,0 ,69,0 ,21,0 ,19.9,0 
2004/5/4 21:15,15.9,0,66,0 ,23.2,0 ,69,0 ,21.1,0 ,20,0 
2004/5/4 21:30,15.9,0,62,0 ,22.9,0 ,74,0 ,21.7,0 ,18.9,0 
2004/5/4 21:45,15.4,0,64,0 ,23.2,0 ,72,0 ,21.7,0 ,19,0 
2004/5/4 22:00,15.6,0,62,0 ,23,0 ,71,0 ,21.8,0 ,19.3,0 
2004/5/4 22:15,15.6,0,66,0 ,22.8,0 ,69,0 ,22,0 ,19.5,0 
2004/5/4 22:30,16.1,0,63,0 ,22.6,0 ,65,0 ,22.2,0 ,19.6,0 
2004/5/4 22:45,15.8,0,61,0 ,22.7,0 ,66,0 ,22.1,0 ,19.7,0 
2004/5/4 23:00,15.7,0,63,0 ,22.7,0 ,66,0 ,21.9,0 ,19.9,0 
2004/5/4 23:15,15.5,0,63,0 ,22.5,0 ,67,0 ,21.8,0 ,19.9,0 
2004/5/4 23:30,15.2,0,65,0 ,22.6,0 ,66,0 ,21.6,0 ,20,0 
2004/5/4 23:45,15.1,0,65,0 ,22.5,0 ,66,0 ,21.5,0 ,20.1,0 
2004/5/5 0:00,15,0,65,0 ,22.5,0 ,66,0 ,21.4,0 ,20.2,0 
2004/5/5 0:15,15.1,0,65,0 ,22.4,0 ,65,0 ,21.3,0 ,20.2,0 
2004/5/5 0:30,15.1,0,64,0 ,22.4,0 ,65,0 ,21.3,0 ,20.3,0 
2004/5/5 0:45,15.1,0,63,0 ,22.4,0 ,64,0 ,21.2,0 ,20.3,0 
2004/5/5 1:00,15.1,0,62,0 ,22.3,0 ,64,0 ,21.1,0 ,20.3,0 
2004/5/5 1:15,14.9,0,63,0 ,22.3,0 ,64,0 ,21.1,0 ,20.4,0 
2004/5/5 1:30,14.9,0,63,0 ,22.3,0 ,63,0 ,21,0 ,20.4,0 
2004/5/5 1:45,15.1,0,61,0 ,22.3,0 ,62,0 ,21,0 ,20.4,0 
2004/5/5 2:00,15,0,60,0 ,22.3,0 ,61,0 ,21,0 ,20.4,0 
2004/5/5 2:15,15,0,59,0 ,22.2,0 ,62,0 ,20.9,0 ,20.5,0 
2004/5/5 2:30,14.9,0,60,0 ,22.2,0 ,62,0 ,20.9,0 ,20.5,0 
2004/5/5 2:45,14.8,0,59,0 ,22.2,0 ,62,0 ,20.9,0 ,20.5,0 
2004/5/5 3:00,14.9,0,59,0 ,22.1,0 ,62,0 ,20.8,0 ,20.5,0 
2004/5/5 3:15,14.7,0,59,0 ,22.2,0 ,62,0 ,20.8,0 ,20.5,0 
2004/5/5 3:30,14.5,0,60,0 ,22.2,0 ,62,0 ,20.7,0 ,20.6,0 
2004/5/5 3:45,14.5,0,62,0 ,22.2,0 ,61,0 ,20.7,0 ,20.6,0 
2004/5/5 4:00,14.4,0,62,0 ,22.1,0 ,61,0 ,20.7,0 ,20.6,0 
2004/5/5 4:15,14.3,0,63,0 ,22.1,0 ,60,0 ,20.7,0 ,20.6,0 
2004/5/5 4:30,13.9,0,65,0 ,22.1,0 ,60,0 ,20.6,0 ,20.6,0 
2004/5/5 4:45,13.5,0,69,0 ,22.1,0 ,59,0 ,20.6,0 ,20.6,0 
2004/5/5 5:00,13.6,0,68,0 ,22.1,0 ,59,0 ,20.6,0 ,20.7,0 
2004/5/5 5:15,13.8,0,66,0 ,22.1,0 ,58,0 ,20.6,0 ,20.7,0 
2004/5/5 5:30,13.8,0,65,0 ,22.1,0 ,58,0 ,20.5,0 ,19.9,0 
2004/5/5 5:45,13.8,0,65,0 ,22,0 ,57,0 ,20.5,0 ,19.9,0 
2004/5/5 6:00,13.8,0,66,0 ,22,0 ,57,0 ,20.5,0 ,20,0 
2004/5/5 6:15,13.6,0,67,0 ,22,0 ,57,0 ,20.5,0 ,20,0 
2004/5/5 6:30,13.9,0,65,0 ,22,0 ,57,0 ,20.5,0 ,20.1,0 
2004/5/5 6:45,13.7,0,67,0 ,22,0 ,56,0 ,20.5,0 ,20.1,0 
2004/5/5 7:00,13.8,0,72,0 ,22,0 ,56,0 ,20.4,0 ,20.2,0 
2004/5/5 7:15,13.5,0,75,0 ,22,0 ,55,0 ,20.5,0 ,20.2,0 
2004/5/5 7:30,12.6,0,77,0 ,22,0 ,57,0 ,20.8,0 ,19.3,0 